星链-30424 (STARLINK-30424 )

导读

STARLINK-30424是美国SpaceX星链计划中的一颗卫星,于2023年9月12日发射。星链项目旨在构建全球卫星互联网星座,为全球偏远地区、海洋空域等提供低成本高速互联网接入。该卫星入轨后进一步扩充了星链星座的规模,推动了星链全球组网部署进程,强化了星座服务覆盖能力与网络稳定性。

基本信息
目录编号:
57857
目录名称:
STARLINK-30424
国际标识:
2023-141T
轨道中心:
EARTH
卫星名称:
星链-30424
卫星全名:
星链-30424 (STARLINK-30424 )
卫星状态:
在轨 (已飞行1095 天)
发射日期:
2023-09-12 UTC
国别 :
美国 (US)
星等 :
--
该卫星已列入 空间交会检测服务 Space Conjunction Data Service (SCDS) ,当前飞行风险评估等级: 无高风险
轨道信息
数据来源 国际轨道数据 AOE轨道数据
星历时间 2026-09-10T05:40:10+0800
1天前
查看轨道信息
2026-09-06T22:00:00+0800
5天前
查看轨道信息
半长轴 6848.883km 6848.871km
偏心率 0.0001661 0.000127
轨道倾角 53.159° 53.157°
近地点辐角 106.506° 99.377°
升交点赤经 121.667° 137.126°
平近点角 253.612° 306.038°
近地点 469.608km 469.864km
远地点 471.884km 471.604km
周期 94.013分钟 94.013分钟
每日圈数 15.316981 15.317023
详细信息
固有亮度:
5
最大亮度:
0.3
卫星平台:
Starlink v2.0 mini
覆盖范围:
全球
运营商:
太空探索技术公司
运营商所在国:
美国
制造商(研发单位):
太空探索技术公司
制造商所在国:
美国
使用方式:
暂无
卫星简介
星链(Starlink)计划是由太空探索技术公司(SpaceX)提出的一个巨型低轨卫星互联网星座项目,计划在2019年至2024年间在太空搭建由约1.2万颗卫星组成的“星链”网络,其中1584颗将部署在地球上空550千米处的近地轨道,并从2020年开始工作。该卫星仍在工作。
2D轨道图
3D轨道图
轨道高度分析图
轨道倾角分析图
轨道综合分析图
查看轨道综合分析图
交会数据列表
事件ID 空间交会对象 最接近时刻(TCA) 交会距离 交会风险概率(CRP) 交会风险指数(CRI) 操作
CDM_260910-145605-761505-785721
2026-09-10T
14:56:08+0000
0.586 km
远距离
3.32502E-5 中风险 0.65
CDM_260912-105705-718205-785723
OBJECT S (57182)
2026-09-12T
10:57:42+0000
1.275 km
极远距离
1.138643E-5 中风险 0.56
CDM_260912-121505-785705-885125
OBJECT C (58851)
2026-09-12T
12:15:30+0000
2.115 km
极远距离
2.262741E-6 低风险 0.42
CDM_260913-111205-323305-785721
2026-09-13T
11:12:49+0000
2.748 km
极远距离
1.481852E-6 低风险 0.38
CDM_260912-205905-785706-524321
2026-09-12T
20:59:10+0000
2.881 km
极远距离
1.405137E-6 低风险 0.38
CDM_260912-003305-785706-971321
2026-09-12T
00:33:40+0000
2.900 km
极远距离
1.394727E-6 低风险 0.38
CDM_260911-085305-785706-524921
2026-09-11T
08:53:42+0000
2.901 km
极远距离
1.394173E-6 低风险 0.38
CDM_260912-005005-316205-785721
2026-09-12T
00:50:56+0000
2.958 km
极远距离
9.202519E-7 极低风险 0.34
与全量物体交会距离演化趋势
与全量物体交会风险概率演化趋势